Regional Weather Roundup
Issued by NWS

Home | Current Version | Previous Version | Text Only | Print | Product List | Glossary Off
Versions: 1 2 3 4 5 6 7 8 9 10 11 12 13 14 15 16 17 18 19 20 21 22 23 24 25 26 27 28 29 30 31 32 33 34 35 36 37 38 39 40 41 42 43 44 45 46 47 48 49 50

000
ASUS43 KLOT 310012
RWRIL

ILLINOIS REGIONAL WEATHER ROUNDUP
NATIONAL WEATHER SERVICE CHICAGO/ROMEOVILLE IL
700 PM CDT SUN AUG 30 2015

NOTE: "FAIR" INDICATES FEW OR NO CLOUDS BELOW 12,000 FEET WITH NO
SIGNIFICANT WEATHER AND/OR OBSTRUCTIONS TO VISIBILITY.

* THESE STATIONS ARE NOT UNDER NWS QUALITY CONTROL. THEY ALSO MAY NOT
  REPORT WEATHER SUCH AS PRECIPITATION OR FOG.

ILZ001-002-007-009-015-016-024-310100-
NORTHWEST ILLINOIS

CITY           SKY/WX    TMP DP  RH WIND       PRES   REMARKS
MOLINE         CLEAR     77  66  68 CALM      30.00F
6HR MIN TEMP:  76; 6HR MAX TEMP:  81;

STERLING*        N/A    N/A N/A N/A MISG        N/A
SAVANNA*       CLEAR     73  64  71 CALM      30.00F
$$

ILZ003-004-008-010-011-017-018-310100-
NORTH CENTRAL ILLINOIS

CITY           SKY/WX    TMP DP  RH WIND       PRES   REMARKS
ROCKFORD       PTCLDY    72  62  71 CALM      30.03F
6HR MIN TEMP:  72; 6HR MAX TEMP:  76;

FREEPORT*      CLEAR     70  65  84 CALM      30.03F
ROCHELLE*      CLEAR     71  65  80 CALM      30.03S
DE KALB*       CLEAR     72  65  80 CALM      30.04S
PERU*          CLEAR     75  63  65 CALM      30.02F
$$

ILZ005-006-012>014-019>023-310100-
NORTHEAST ILLINOIS

CITY           SKY/WX    TMP DP  RH WIND       PRES   REMARKS
CHICAGO-OHARE  PTCLDY    72  64  76 E6        30.01F
6HR MIN TEMP:  70; 6HR MAX TEMP:  77;

CHICAGO-MIDWAY CLEAR     73  64  73 E8        30.01F
6HR MIN TEMP:  73; 6HR MAX TEMP:  78;

AURORA         PTCLDY    73  66  78 CALM      30.02F
6HR MIN TEMP:  74; 6HR MAX TEMP:  78;

LANSING*       PTCLDY    71  65  82 CALM      30.02S
JOLIET*        CLEAR     77  66  68 CALM      30.02S
WAUKEGAN       CLEAR     66  63  90 SE3       30.02S
6HR MIN TEMP:  66; 6HR MAX TEMP:  70;

DUPAGE AIRPORT CLEAR     73  63  70 CALM      30.02S
6HR MIN TEMP:  72; 6HR MAX TEMP:  77;

KANKAKEE*      CLEAR     77  68  72 CALM      30.02F
WHEELING       CLEAR     69  63  81 E3        30.03S
6HR MIN TEMP:  69; 6HR MAX TEMP:  76;

MORRIS*        CLEAR     74  66  76 W5        30.01S
ROMEOVILLE*    CLEAR     73  65  74 NW5       30.02S
NORTHERLY ISL    N/A     68  64  87 NE5         N/A
$$

LMZ740>746-310100-
SOUTHERN LAKE MICHIGAN

STATION/POSITION SKY/WX   TEMP    WIND        PRES    VSBY  WAVE
                          AIR SEA DIR/SP/G                  HT/PER
                          (F)     (DEG/KT/KT) (MB)    (MI)  (FT/S)
SOUTHERN BUOY              67 68   60/  2/  2 1016.2F         1
WILMETTE HARBOR            62 61   90/  2/  2   N/A           1
HARRISON CRIB              68      60/  6/  7   N/A
BURNHAM HARBOR             68      80/  4/  6   N/A
BURNS HARBOR               71      70/  8/ 10 1017.3S
MICHIGAN CITY              69      40/  7/  7   N/A
MICHIGAN CITY 6N           69 71   70/  6/  8   N/A           1/ 3
ST. JOSEPH                 69 71   70/  4/  4   N/A           1/ 3
$$

ILZ025>027-034>036-040-047-049-050-058-095>099-310100-
WEST-CENTRAL ILLINOIS

CITY           SKY/WX    TMP DP  RH WIND       PRES   REMARKS
QUINCY         PTCLDY    82  68  62 E5        29.99S HX  85
GALESBURG*     MOCLDY    75  69  82 N3        30.01S
MACOMB*        CLEAR     76  71  85 NE3       30.02F
JACKSONVILLE*  MOCLDY    84  72  67 CALM      29.99S HX  89
PITTSFIELD*    CLEAR     82  72  72 CALM      30.00S HX  87
$$

ILZ028>032-037-038-041>044-048-051>054-059>061-310100-
CENTRAL ILLINOIS

CITY           SKY/WX    TMP DP  RH WIND       PRES   REMARKS
PONTIAC        CLEAR     76  71  85 NW3       30.02F
BLOOMINGTON    CLEAR     79  70  74 NE6       30.03S HX  82
DECATUR        CLEAR     82  68  62 SW5       30.00S HX  85
PEORIA         CLEAR     80  67  64 CALM      30.01S HX  82
6HR MIN TEMP:  78; 6HR MAX TEMP:  85;

LACON*         CLEAR     75  67  76 CALM      30.00F
LINCOLN*       PTCLDY    81  70  68 NE3       29.99S HX  85
SPRINGFIELD    CLEAR     83  73  72 NW3       29.99S HX  89
6HR MIN TEMP:  83; 6HR MAX TEMP:  88;

TAYLORVILLE    RAIN      75  72  88 CALM      30.00S
$$

ILZ033-039-045-046-055>057-062-063-310100-
EAST-CENTRAL ILLINOIS

CITY           SKY/WX    TMP DP  RH WIND       PRES   REMARKS
CHAMPAIGN      PTCLDY    81  69  67 S3        30.01S HX  84
RANTOUL*       CLEAR     82  72  70 N3        30.01S HX  87
MATTOON        CLEAR     80  67  64 SW3       30.00F HX  82
PARIS*         CLEAR     79  68  69 CALM      30.02S HX  81
$$

ILZ079-100>102-310100-
SOUTHWEST ILLINOIS

CITY           SKY/WX    TMP DP  RH WIND       PRES   REMARKS
BELLEVILLE     CLEAR     83  74  74 E2        29.98S HX  89
CAHOKIA*       CLEAR     83  70  64 SE5       29.98S HX  87
SPARTA*        PTCLDY    80  72  76 SE5       30.00F HX  84
$$

ILZ064>066-069>071-074>076-080>082-084>086-088>090-092>094-310100-
SOUTH-CENTRAL ILLINOIS

CITY           SKY/WX    TMP DP  RH WIND       PRES   REMARKS
CARBONDALE     CLEAR     80  70  71 SE6       30.00F HX  83
6HR MIN TEMP:  80; 6HR MAX TEMP:  86;

CAIRO*         CLOUDY    79  75  88 SE6       30.02R HX  83
EFFINGHAM*     CLEAR     81  65  59 SE3       30.02F HX  83
MARION         CLEAR     82  72  69 SE7       30.02S HX  87
MT. VERNON     CLEAR     81  68  65 CALM      30.02S HX  83
SALEM*         CLOUDY    83  70  65 CALM      30.01S HX  87
METROPOLIS*    PTCLDY    78  72  81 CALM      30.03F HX  81
$$

ILZ067-068-072-073-078-083-087-091-310100-
SOUTHEAST ILLINOIS

CITY           SKY/WX    TMP DP  RH WIND       PRES   REMARKS
LAWRENCEVILLE  PTCLDY    80  69  69 S9        30.02R HX  83
FLORA*         PTCLDY    81  67  62 S5        30.02S HX  83
FAIRFIELD*     CLEAR     78  72  81 CALM      30.01R HX  80
HARRISBURG*    PTCLDY    80  73  76 S3        30.02S HX  85
ROBINSON*      CLEAR     81  68  64 S3        30.02S HX  83
CARMI*         PTCLDY    78  71  78 S6        30.02R HX  81
$$

ABBREVIATIONS USED IN REMARKS
   TC - TEMPERATURE IN CELSIUS
  WCI - WIND CHILL INDEX
   HX - HEAT INDEX
  VSB - VISIBILITY
$$




USA.gov is the U.S. government's official web portal to all federal, state and local government web resources and services.